Fort Indiantown Gap, PA

7:29 PM EDT on October 17, 2019 (GMT -0400)
Muir Army Air Field

Weather History for KMUI - September, 2019

Change the Weather History Date:

Monday, September 16, 2019

  Actual Average Record
Temperature  
Mean Temperature 70 °F -  
Max Temperature 79 °F 73 °F 87 °F (1998)
Min Temperature 60 °F 57 °F 40 °F (2007)
Cooling Degree Days 4    
Growing Degree Days 20 (Base 50)    
Moisture  
Dew Point 62 °F    
Average Humidity 76    
Maximum Humidity 97    
Minimum Humidity 57    
Precipitation  
Precipitation 0.00 in - - ()
Sea Level Pressure  
Sea Level Pressure 30.06 in    
Wind  
Wind Speed 1 mph (NNE)    
Max Wind Speed 6 mph    
Max Gust Speed -    
Visibility 10 miles    
Events Rain    
Averages and records for this station are not official NWS values.
T = Trace of Precipitation, MM = Missing Value Source: NWS Daily Summary

Daily Weather History Graph

Daily Weather History Graph

Search for Another Location

Airport or City:

Astronomy

Sep. 16, 2019 Rise Set
Actual Time 6:47 AM EDT 7:13 PM EDT
Civil Twilight 6:20 AM EDT 7:41 PM EDT
Nautical Twilight 5:48 AM EDT 8:13 PM EDT
Astronomical Twilight 5:15 AM EDT 8:46 PM EDT
Moon 8:47 PM EDT (9/16) 8:52 AM EDT (9/16)
Length of Visible Light 13h 20m
Length of Day
12h 26m
Waning Gibbous, 94% of the Moon is Illuminated
Sep 16
Waning Gibbous
Sep 21
Last Quarter
Sep 28
New
Oct 5
First Quarter
Oct 13
Full

Hourly Weather History & Observations

Time (EDT) Temp. Dew Point Humidity Pressure Visibility Wind Dir Wind Speed Gust Speed Precip Events Conditions
12:56 AM 64.0 °F 60.6 °F 89% 30.10 in 10.0 mi Calm Calm - N/A   Overcast
1:56 AM 63.0 °F 60.8 °F 93% 30.09 in 10.0 mi Calm Calm - N/A   Mostly Cloudy
2:56 AM 63.1 °F 61.0 °F 93% 30.08 in 10.0 mi Calm Calm - N/A   Unknown
3:56 AM 64.0 °F 61.3 °F 91% 30.09 in 10.0 mi Calm Calm - N/A   Overcast
4:56 AM 62.6 °F 60.8 °F 94% 30.09 in 10.0 mi Calm Calm - N/A   Overcast
5:56 AM 60.3 °F 59.4 °F 97% 30.09 in 10.0 mi Calm Calm - N/A   Mostly Cloudy
6:56 AM 62.2 °F 60.1 °F 93% 30.09 in 10.0 mi Calm Calm - N/A   Mostly Cloudy
7:56 AM 63.5 °F 61.7 °F 94% 30.09 in 10.0 mi Calm Calm - N/A   Mostly Cloudy
8:56 AM 66.6 °F 61.5 °F 84% 30.10 in 10.0 mi Calm Calm - N/A   Mostly Cloudy
9:56 AM 69.1 °F 59.7 °F 72% 30.09 in 10.0 mi South 3.5 mph - N/A   Mostly Cloudy
10:56 AM 73.0 °F 61.3 °F 67% 30.09 in 10.0 mi Calm Calm - N/A   Mostly Cloudy
11:56 AM 75.0 °F 61.5 °F 63% 30.06 in 10.0 mi SW 3.5 mph - N/A   Mostly Cloudy
11:58 AM 75.2 °F 60.8 °F 61% 30.06 in 10.0 mi Calm Calm - N/A Rain Light Rain Showers
12:49 PM 73.4 °F 64.4 °F 73% 30.06 in 10.0 mi Calm Calm - N/A   Overcast
12:56 PM 73.2 °F 63.7 °F 72% 30.06 in 10.0 mi Calm Calm - 0.00 in   Overcast
1:56 PM 79.5 °F 63.0 °F 57% 30.03 in 10.0 mi NW 5.8 mph - N/A   Mostly Cloudy
2:56 PM 78.8 °F 63.7 °F 60% 30.02 in 10.0 mi East 5.8 mph - N/A   Mostly Cloudy
3:56 PM 78.8 °F 62.2 °F 57% 30.00 in 10.0 mi NNE 3.5 mph - N/A   Overcast
4:56 PM 77.9 °F 62.8 °F 60% 30.00 in 10.0 mi NNW 4.6 mph - N/A   Overcast
5:56 PM 76.3 °F 62.8 °F 63% 30.01 in 10.0 mi North 3.5 mph - N/A   Overcast
6:56 PM 74.8 °F 62.2 °F 65% 30.01 in 10.0 mi North 4.6 mph - N/A   Overcast
7:56 PM 72.3 °F 62.8 °F 72% 30.02 in 10.0 mi NNE 3.5 mph - N/A   Overcast
8:56 PM 72.1 °F 63.0 °F 73% 30.04 in 10.0 mi NNE 4.6 mph - N/A   Overcast
9:56 PM 70.0 °F 62.4 °F 77% 30.04 in 10.0 mi NE 3.5 mph - N/A   Partly Cloudy
10:56 PM 69.6 °F 62.4 °F 78% 30.06 in 10.0 mi NNE 5.8 mph - N/A   Mostly Cloudy
11:56 PM 68.7 °F 61.9 °F 79% 30.07 in 10.0 mi NNE 3.5 mph - N/A   Mostly Cloudy